Location: Brzeg
(50.8582°N, 17.4644°E)
Time: 23:46:38
(UTC+01:00)

ISS - Visible Passes

Search period start: 23 January 2019 00:00
Search period end: 02 February 2019 00:00
Orbit: 404 x 410 km, 51.6° (Epoch: 24 January)

Date Brightness Start Highest point End Pass type
(mag) Time Alt. Az. Time Alt. Az. Time Alt. Az.
23 Jan -1.7 18:39:42 10° SSW 18:41:05 18° S 18:41:05 18° S visible
24 Jan -1.8 17:49:12 10° S 17:51:16 16° SE 17:52:04 15° ESE visible
24 Jan -0.9 19:24:03 10° WSW 19:24:47 16° SW 19:24:47 16° SW visible
25 Jan -3.0 18:32:52 10° SW 18:35:41 40° S 18:35:41 40° S visible
26 Jan -2.5 17:41:51 10° SSW 17:44:45 28° SSE 17:46:30 18° E visible
26 Jan -1.5 19:17:44 10° WSW 19:19:14 24° WSW 19:19:14 24° WSW visible
27 Jan -3.9 18:26:23 10° WSW 18:29:40 69° SSE 18:30:00 62° ESE visible
28 Jan -3.3 17:35:06 10° SW 17:38:19 49° SSE 17:40:43 16° E visible
28 Jan -2.0 19:11:29 10° W 19:13:26 32° W 19:13:26 32° W visible
29 Jan -3.9 18:20:02 10° W 18:23:21 86° NNW 18:24:07 50° ENE visible
29 Jan -0.2 19:56:40 10° W 19:56:50 11° W 19:56:50 11° W visible
30 Jan -3.8 17:28:37 10° WSW 17:31:56 78° SSE 17:34:47 13° ENE visible
30 Jan -2.5 19:05:12 10° W 19:07:30 41° WNW 19:07:30 41° WNW visible
31 Jan -3.8 18:13:44 10° W 18:17:02 75° N 18:18:09 38° ENE visible
31 Jan -0.5 19:50:19 10° WNW 19:50:52 14° W 19:50:52 14° W visible
01 Feb -3.8 17:22:14 10° W 17:25:33 81° NNW 17:28:49 10° E visible
01 Feb -3.2 18:58:51 10° WNW 19:01:32 55° WNW 19:01:32 55° WNW visible
